Weather History for Plymouth, MA

Change the Weather History Date:

Sunday, May 4, 2014

  Actual Average Record
Temperature  
Mean Temperature 56 °F -  
Max Temperature 64 °F 64 °F 90 °F (2001)
Min Temperature 50 °F 40 °F 27 °F (1977)
Degree Days  
Heating Degree Days 8    
Growing Degree Days 6 (Base 50)    
Moisture  
Dew Point 36 °F    
Average Humidity 50    
Maximum Humidity 74    
Minimum Humidity 31    
Precipitation  
Precipitation 0.00 in - - ()
Sea Level Pressure  
Sea Level Pressure 29.61 in    
Wind  
Wind Speed 12 mph (WSW)    
Max Wind Speed 24 mph    
Max Gust Speed 40 mph    
Visibility 10 miles    
Events      
Averages and records for this station are not official NWS values.
T = Trace of Precipitation, MM = Missing Value Source: NWS Daily Summary

Daily Weather History Graph

Daily Weather History Graph

Search for Another Location

Airport:

Trip Planner

Search our weather history database for the weather conditions in past years. The results will help you decide how hot, cold, wet, or windy it might be!

Date:

Astronomy

May. 04, 2014 Rise Set
Actual Time 5:35 AM EDT 7:44 PM EDT
Civil Twilight 5:04 AM EDT 8:15 PM EDT
Nautical Twilight 4:26 AM EDT 8:53 PM EDT
Astronomical Twilight 3:45 AM EDT 9:35 PM EDT
Moon 9:56 AM EDT (5/4) No Moon Set
Length of Visible Light 15h 11m
Length of Day
14h 09m
Waxing Crescent, 27% of the Moon is Illuminated
May 4
Waxing Crescent
May 6
First Quarter
May 14
Full
May 21
Last Quarter
May 28
New

Hourly Weather History & Observations

Time (EDT) Temp. Dew Point Humidity Pressure Visibility Wind Dir Wind Speed Gust Speed Precip Events Conditions
12:52 AM 52.0 °F 39.0 °F 61% 29.73 in 10.0 mi South 3.5 mph - N/A   Overcast
1:52 AM 50.0 °F 39.9 °F 68% 29.71 in 10.0 mi South 3.5 mph - N/A   Partly Cloudy
2:52 AM 51.1 °F 41.0 °F 68% 29.70 in 10.0 mi SSW 8.1 mph - N/A   Scattered Clouds
3:52 AM 52.0 °F 43.0 °F 71% 29.68 in 10.0 mi SSW 5.8 mph - N/A   Scattered Clouds
4:52 AM 51.1 °F 43.0 °F 74% 29.68 in 10.0 mi SSW 6.9 mph - N/A   Scattered Clouds
5:52 AM 51.1 °F 43.0 °F 74% 29.67 in 10.0 mi SW 9.2 mph - N/A   Clear
6:52 AM 52.0 °F 44.1 °F 74% 29.66 in 10.0 mi WSW 9.2 mph - N/A   Clear
7:52 AM 55.0 °F 43.0 °F 64% 29.67 in 10.0 mi WSW 15.0 mph - N/A   Clear
8:52 AM 59.0 °F 39.9 °F 49% 29.64 in 10.0 mi WSW 17.3 mph 27.6 mph N/A   Clear
9:52 AM 61.0 °F 36.0 °F 39% 29.61 in 10.0 mi West 18.4 mph 26.5 mph N/A   Clear
10:52 AM 62.1 °F 34.0 °F 35% 29.58 in 10.0 mi WSW 17.3 mph 29.9 mph N/A   Partly Cloudy
11:52 AM 63.0 °F 32.0 °F 31% 29.56 in 10.0 mi West 24.2 mph 40.3 mph N/A   Mostly Cloudy
12:52 PM 61.0 °F 32.0 °F 34% 29.55 in 10.0 mi West 17.3 mph 26.5 mph N/A   Overcast
1:52 PM 62.1 °F 33.1 °F 34% 29.55 in 10.0 mi West 17.3 mph 31.1 mph N/A   Overcast
2:52 PM 62.1 °F 33.1 °F 34% 29.54 in 10.0 mi West 24.2 mph 38.0 mph N/A   Overcast
3:52 PM 61.0 °F 33.1 °F 35% 29.55 in 10.0 mi West 21.9 mph 32.2 mph N/A   Overcast
4:52 PM 62.1 °F 33.1 °F 34% 29.55 in 10.0 mi WNW 23.0 mph 34.5 mph 0.00 in   Mostly Cloudy
5:52 PM 57.0 °F 34.0 °F 42% 29.56 in 10.0 mi NW 21.9 mph 35.7 mph N/A   Clear
6:52 PM 57.0 °F 34.0 °F 42% 29.57 in 10.0 mi WNW 18.4 mph 24.2 mph N/A   Clear
7:52 PM 54.0 °F 30.9 °F 41% 29.57 in 10.0 mi West 19.6 mph 29.9 mph N/A   Clear
8:52 PM 52.0 °F 32.0 °F 47% 29.59 in 10.0 mi WNW 19.6 mph 26.5 mph N/A   Scattered Clouds
9:52 PM 51.1 °F 33.1 °F 50% 29.60 in 10.0 mi WNW 16.1 mph 29.9 mph N/A   Clear
10:52 PM 50.0 °F 34.0 °F 54% 29.60 in 10.0 mi WNW 12.7 mph 24.2 mph N/A   Clear
11:52 PM 50.0 °F 35.1 °F 57% 29.62 in 10.0 mi West 11.5 mph - N/A   Mostly Cloudy